Location: Wildlife_Club
(35.6000°N, 81.4330°W)
Time: 00:18:51
(UTC-04:00)

Vanguard 2 Rocket - All Passes

Search period start: 26 June 2019 00:00
Search period end: 06 July 2019 00:00
Orbit: 555 x 3326 km, 32.9° (Epoch: 25 June)

Date Brightness Start Highest point End Pass type
(mag) Time Alt. Az. Time Alt. Az. Time Alt. Az.
26 Jun - 00:16:21 10° W 00:25:09 78° S 00:41:07 10° E visible
26 Jun - 02:29:28 10° W 02:41:19 60° SSW 02:59:56 10° SE visible
26 Jun - 04:44:54 10° W 04:58:08 33° SW 05:14:35 10° SSE visible
26 Jun - 21:05:52 10° SW 21:11:07 45° SSE 21:19:51 10° E visible
26 Jun - 23:17:20 10° W 23:24:45 77° S 23:38:27 10° E visible
27 Jun - 01:29:56 10° W 01:40:12 67° SSW 01:57:43 10° ESE visible
27 Jun - 03:44:07 10° W 03:56:44 40° SSW 04:14:11 10° SSE visible
27 Jun - 06:04:23 10° WSW 06:13:20 16° SW 06:23:06 10° SSW daylight
27 Jun - 20:07:46 10° SSW 20:12:00 29° SSE 20:18:13 10° E daylight
27 Jun - 22:18:32 10° WSW 22:24:47 71° S 22:36:07 10° E visible
28 Jun - 00:30:43 10° W 00:39:27 72° S 00:55:13 10° ESE visible
28 Jun - 02:44:01 10° W 02:55:27 48° SSW 03:13:00 10° SE visible
28 Jun - 05:00:54 10° W 05:12:03 22° SW 05:25:25 10° S visible
28 Jun - 19:10:23 10° S 19:13:08 16° SE 19:16:28 10° ESE daylight
28 Jun - 21:19:54 10° WSW 21:25:10 59° SSE 21:34:14 10° E visible
28 Jun - 23:31:42 10° W 23:39:05 76° S 23:52:42 10° ESE visible
29 Jun - 01:44:24 10° W 01:54:26 55° SSW 02:11:13 10° SE visible
29 Jun - 03:59:22 10° W 04:10:46 29° SSW 04:25:56 10° SSE visible
29 Jun - 20:21:27 10° SW 20:25:55 42° SSE 20:32:49 10° E daylight
29 Jun - 22:32:51 10° W 22:39:05 75° S 22:50:25 10° E visible
30 Jun - 00:45:07 10° W 00:53:45 62° SSW 01:09:03 10° ESE visible
30 Jun - 02:58:52 10° W 03:09:36 36° SSW 03:25:24 10° SSE visible
30 Jun - 05:19:18 10° WSW 05:26:06 13° SW 05:33:41 10° SSW visible
30 Jun - 19:23:20 10° SSW 19:26:55 26° SSE 19:31:43 10° E daylight
30 Jun - 21:34:08 10° WSW 21:39:25 69° S 21:48:34 10° E visible
30 Jun - 23:46:05 10° W 23:53:25 68° S 00:06:47 10° ESE visible
01 Jul - 01:59:02 10° W 02:08:39 43° SSW 02:24:10 10° SE visible
01 Jul - 04:15:43 10° WSW 04:24:54 19° SW 04:36:19 10° S visible
01 Jul - 18:25:52 10° S 18:28:02 14° SE 18:30:27 10° ESE daylight
01 Jul - 20:35:31 10° WSW 20:40:02 56° SSE 20:47:14 10° E daylight
01 Jul - 22:47:14 10° W 22:53:25 72° S 23:04:39 10° ESE visible
02 Jul - 00:59:38 10° W 01:08:02 50° SSW 01:22:29 10° SE visible
02 Jul - 03:14:20 10° W 03:23:49 25° SSW 03:36:53 10° SSE visible
02 Jul - 19:37:01 10° SW 19:40:55 39° SSE 19:46:22 10° E daylight
02 Jul - 21:48:27 10° W 21:53:44 72° S 22:02:52 10° E visible
03 Jul - 00:00:32 10° W 00:07:43 57° SSW 00:20:35 10° ESE visible
03 Jul - 02:14:01 10° W 02:22:56 31° SSW 02:36:25 10° SSE visible
03 Jul - 04:36:16 10° SW 04:39:12 11° SW 04:42:19 10° SSW visible
03 Jul - 18:38:43 10° SSW 18:41:58 24° SSE 18:45:48 10° E daylight
03 Jul - 20:49:45 10° WSW 20:54:17 66° S 21:01:35 10° E daylight
03 Jul - 23:01:38 10° W 23:07:45 63° S 23:18:43 10° ESE visible
04 Jul - 01:14:21 10° W 01:22:21 37° SSW 01:35:21 10° SE visible
04 Jul - 03:31:16 10° WSW 03:38:08 16° SSW 03:46:38 10° S visible
04 Jul - 17:40:55 10° S 17:43:00 14° SSE 17:45:08 10° ESE daylight
04 Jul - 19:51:04 10° WSW 19:55:06 53° SSE 20:00:48 10° E daylight
04 Jul - 22:02:50 10° W 22:08:05 67° S 22:17:06 10° ESE visible
05 Jul - 00:15:05 10° W 00:22:04 43° SSW 00:33:58 10° SE visible
05 Jul - 02:29:48 10° WSW 02:37:18 21° SSW 02:47:34 10° SSE visible
05 Jul - 18:52:24 10° SW 18:56:03 37° SSE 19:00:29 10° E daylight
05 Jul - 21:04:06 10° W 21:08:38 68° S 21:15:54 10° E visible
05 Jul - 23:16:06 10° W 23:22:06 50° SSW 23:32:30 10° SE visible
